Regional Weather Roundup
Issued by NWS

Home | Current Version | Previous Version | Graphics & Text | Print | Product List | Glossary On
Versions: 1 2 3 4 5 6 7 8 9 10 11 12 13 14 15 16 17 18 19 20 21 22 23 24 25 26 27 28 29 30 31 32 33 34 35 36 37 38 39 40 41 42 43 44 45 46 47 48 49 50
000
ASUS45 KSLC 231810
RWRUT

UTAH REGIONAL WEATHER ROUNDUP
NATIONAL WEATHER SERVICE SALT LAKE CITY UT
1100 AM MST FRI FEB 23 2018

UTZ001>011-023>025-231900-

NORTHERN UTAH

CITY           SKY/WX    TMP DP  RH WIND       PRES   REMARKS
BRIGHAM CITY   CLOUDY    26  19  73 NW12G17   30.01S WCI  16
HILL AFB       SNOW      22  20  92 NW16      29.97R VSB 1/2 WCI   8
LOGAN          LGT SNOW  24  16  71 N15       30.02R WCI  11
OGDEN          LGT SNOW  23  19  85 NW15      29.97R VSB 3/4 WCI  10
SALT LAKE CITY LGT SNOW  27  22  81 NW14      30.00R VSB 3/4 WCI  16
TOOELE VALLEY  LGT SNOW  23  21  93 W20       30.04R VSB 3/4 WCI   8
WENDOVER       SUNNY     28  13  53 NW16      30.09R WCI  16
HEBER CITY     LGT SNOW  23  18  80 N6        29.90R WCI  16
WEST JORDAN    CLOUDY    23  22  97 NW20      30.00R WCI   8

$$

UTZ011>015-024>027-231900-

CENTRAL/NORTHEAST UTAH

CITY           SKY/WX    TMP DP  RH WIND       PRES   REMARKS
PROVO AIRPORT  CLOUDY    27  25  93 NW13      29.99R VSB 1   WCI  16
MOAB/CANYONLAN PTSUNNY   34  26  72 S15       29.93R WCI  24
DELTA          PTSUNNY   23  21  93 NW5       30.03R WCI  17
PRICE          LGT SNOW  26  25  96 W3        29.87R FOG
RICHFIELD      SUNNY     27  23  86 S14       29.96R WCI  15
VERNAL         LGT SNOW  27  23  85 NE6       29.90F FOG     WCI  20

$$

UTZ013>016-019>022-027-231900-

SOUTHERN UTAH

CITY           SKY/WX    TMP DP  RH WIND       PRES   REMARKS
BRYCE CANYON   MOSUNNY   22  10  60 W13       29.90R WCI  10
CEDAR CITY     SUNNY     29  21  72 NE5       29.95S WCI  24
MILFORD        CLOUDY    27  22  81 N9        30.00R WCI  18
ST GEORGE      CLOUDY    37  31  78 CALM      30.05S
HANKSVILLE     MOSUNNY   37  23  56 SE5       29.96R WCI  34
KANAB          SUNNY     30  18  59 CALM      30.04R
BLANDING         N/A     25  23  93 W10G16    30.04S VSB 1   WCI  15

$$

REGIONAL REPORTS     COLORADO/ARIZONA

CITY           SKY/WX    TMP DP  RH WIND       PRES   REMARKS
CRAIG, CO      CLOUDY    26  15  63 E8        29.91F WCI  18
GRAND JUNCTION PTSUNNY   36  28  73 SE22      29.94F WCI  25
RIFLE, CO      CLOUDY    27  21  78 NW3       29.94S
MONTROSE, CO   CLOUDY    34  10  37 VRB5      29.95F WCI  30
CORTEZ, CO     CLOUDY    34  14  43 S15       29.98F WCI  24
COLORADO CITY    N/A     36  18  48 CALM      30.01S
PAGE, AZ       PTSUNNY   34  31  88 N6        29.98F WCI  29
GRAND CANYON   LGT SNOW  23  19  85 W9        29.95S VSB 1   WCI  13
KINGMAN, AZ    PTSUNNY   42  17  36 SW16G29   30.04S
FLAGSTAFF, AZ  LGT SNOW  24  18  77 SW15G26   29.95R VSB 3/4 WCI  11

$$

REGIONAL REPORTS    NEVADA/IDAHO/WYOMING

CITY           SKY/WX    TMP DP  RH WIND       PRES   REMARKS
LAS VEGAS, NV  MOSUNNY   48  16  27 N15G24    30.05R
ELY, NY        LGT SNOW  19  13  77 N9        29.99R WCI   8
ELKO, NV       MOSUNNY   24  11  57 CALM      30.10R
POCATELLO, ID  LGT SNOW  18  13  80 SW16      30.13R WCI   3
BURLEY, ID     LGT SNOW  16  10  77 W13G22    30.16S WCI   2
EVANSTON, WY   LGT SNOW  11   6  81 E12       29.88R WCI  -3
ROCK SPRINGS,  CLOUDY    14  10  84 E5        29.90S WCI   6

$$



USA.gov is the U.S. government's official web portal to all federal, state and local government web resources and services.